DW2217 Weather Reports


time (UTC)temp
F
wind
direction
speed
knots
gust
knots
rain 1hr
in
rain 24hr
in
rain mn
in
humidity
%
barometer
mb
20210414110321 37 0.0 0.0 0.00 0.00 0.00 82 1018.3
20210414104523 36 0.0 0.0 0.00 0.00 0.00 83 1018.2
20210414103028 36 0.0 0.0 0.00 0.00 0.00 83 1018.2
20210414101523 36 0.0 0.0 0.00 0.00 0.00 83 1018.0
20210414100041 37 0.0 0.0 0.00 0.00 0.00 83 1018.0
20210414094520 37 0.0 0.0 0.00 0.00 0.00 84 1017.9
20210414093032 37 0.0 0.0 0.00 0.00 0.00 84 1017.8
20210414091525 38 0.0 0.0 0.00 0.00 0.00 84 1017.9
20210414090041 38 0.0 0.0 0.00 0.00 0.00 84 1017.8
20210414084523 39 0.0 0.0 0.00 0.00 0.00 84 1017.7
20210414083039 39 0.0 0.0 0.00 0.00 0.00 84 1017.6
20210414081524 39 0.0 0.0 0.00 0.00 0.00 84 1017.5
20210414080047 40 0.0 0.0 0.00 0.00 0.00 85 1017.6
20210414074538 40 0.0 0.0 0.00 0.00 0.00 85 1017.5
20210414073026 40 0.0 1.7 0.00 0.00 0.00 85 1017.4
20210414071531 40 0.0 0.0 0.00 0.00 0.00 85 1017.3
20210414070115 41 0.0 0.0 0.00 0.00 0.00 85 1017.2
20210414064526 41 0.0 0.9 0.00 0.00 0.00 85 1017.1
20210414063050 40 0.0 0.9 0.00 0.00 0.00 85 1017.1
20210414061519 40 0.0 0.0 0.00 0.00 0.00 85 1017.0
20210414060222 40 0.0 0.0 0.00 0.00 0.00 85 1017.1
20210414054535 41 0.0 0.0 0.00 0.00 0.00 85 1017.2
20210414053033 42 0.0 0.0 0.00 0.00 0.00 84 1017.3
20210414051524 42 0.0 0.0 0.00 0.00 0.00 83 1017.4
20210414050236 43 0.0 0.0 0.00 0.00 0.00 83 1017.4
20210414044522 43 0.0 0.0 0.00 0.00 0.00 83 1017.1
20210414043051 43 0.0 0.0 0.00 0.00 0.00 83 1017.2
20210414041546 44 0.0 0.9 0.00 0.00 0.00 82 1017.3
20210414040248 44 0.0 1.7 0.00 0.00 0.00 81 1017.3
20210414034533 44 0.0 1.7 0.00 0.00 0.00 81 1017.1
20210414033354 45 0.0 1.7 0.00 0.00 0.00 81 1017.0
20210414031537 45 0.0 1.7 0.00 0.00 0.00 81 1016.9
20210414030101 45 0.0 1.7 0.00 0.00 0.00 81 1016.6
20210414024532 45 0.0 2.6 0.00 0.00 0.00 81 1016.6
20210414023129 47 0.0 3.5 0.00 0.00 0.00 78 1016.6
20210414021526 48 0.0 3.5 0.00 0.00 0.00 75 1016.3
20210414014544 48 0.0 1.7 0.00 0.00 0.00 73 1015.9
20210414011525 49 0.0 0.9 0.00 0.00 0.00 72 1015.7
20210414004538 50 0.0 0.9 0.00 0.00 0.00 70 1015.3
20210414001538 52 0.0 1.7 0.00 0.00 0.00 66 1015.2
20210414000037 54 0.0 0.9 0.00 0.00 0.00 62 1015.0
20210413234523 56 0.0 0.9 0.00 0.00 0.00 60 1014.8
20210413231530 58 0.0 0.0 0.00 0.00 0.00 55 1014.6
20210413230258 59 0.0 0.0 0.00 0.00 0.00 54 1014.6
20210413224558 59 0.0 0.0 0.00 0.00 0.00 54 1014.7
20210413223115 60 0.0 0.0 0.00 0.00 0.00 53 1014.6
20210413221537 60 0.0 0.0 0.00 0.00 0.00 52 1014.8
20210413220317 60 0.0 0.0 0.00 0.00 0.00 52 1014.8
20210413214527 61 0.0 0.0 0.00 0.00 0.00 51 1014.8
20210413213101 61 0.0 0.9 0.00 0.00 0.00 50 1014.9
20210413211527 62 0.0 0.0 0.00 0.00 0.00 49 1014.8
20210413210044 62 0.0 0.0 0.00 0.00 0.00 49 1014.8
20210413204524 62 0.0 0.9 0.00 0.00 0.00 48 1014.7
20210413203131 62 0.0 0.9 0.00 0.00 0.00 48 1014.7
20210413201533 62 0.0 0.9 0.00 0.00 0.00 50 1014.7
20210413200259 62 0.0 0.9 0.00 0.00 0.00 49 1014.7
20210413194528 62 0.0 0.9 0.00 0.00 0.00 49 1014.8
20210413193148 62 0.0 3.5 0.00 0.00 0.00 49 1014.8
20210413191534 62 0.0 0.9 0.00 0.00 0.00 48 1015.1
20210413190118 62 0.0 0.9 0.00 0.00 0.00 50 1015.2
20210413184530 62 0.0 2.6 0.00 0.00 0.00 51 1015.3
20210413183033 61 0.0 4.3 0.00 0.00 0.00 51 1015.6
20210413181525 61 0.0 2.6 0.00 0.00 0.00 51 1015.7
20210413180026 60 0.0 2.6 0.00 0.00 0.00 54 1015.9
20210413174527 59 0.0 0.9 0.00 0.00 0.00 55 1016.0
20210413173047 58 0.0 2.6 0.00 0.00 0.00 56 1016.0
20210413171545 57 0.0 2.6 0.00 0.00 0.00 57 1015.9
20210413170131 57 0.0 4.3 0.00 0.00 0.00 58 1016.0
20210413164536 56 0.0 2.6 0.00 0.00 0.00 58 1016.3
20210413163223 56 0.0 1.7 0.00 0.00 0.00 60 1016.4
20210413161518 55 0.0 2.6 0.00 0.00 0.00 60 1016.4
20210413160236 54 0.0 3.5 0.00 0.00 0.00 62 1016.5
20210413154525 54 0.0 0.9 0.00 0.00 0.00 62 1016.5
20210413153123 54 0.0 1.7 0.00 0.00 0.00 62 1016.6
20210413151549 53 0.0 2.6 0.00 0.00 0.00 63 1016.6
20210413144539 52 0.0 0.9 0.00 0.00 0.00 64 1016.6
20210413143148 52 0.0 2.6 0.00 0.00 0.00 65 1016.5
20210413141522 51 0.0 3.5 0.00 0.00 0.00 66 1016.5
20210413140132 51 0.0 2.6 0.00 0.00 0.00 66 1016.5
20210413134617 50 0.0 3.5 0.00 0.00 0.00 68 1016.4
20210413133154 50 0.0 2.6 0.00 0.00 0.00 69 1016.4
20210413131545 49 0.0 3.5 0.00 0.00 0.00 70 1016.3
20210413124557 47 0.0 3.5 0.00 0.00 0.00 73 1016.1
20210413121530 46 0.0 2.6 0.00 0.00 0.00 75 1016.1
20210413114526 45 0.0 2.6 0.00 0.00 0.00 78 1015.8
20210413111540 44 0.0 3.5 0.00 0.00 0.00 79 1015.6